Sparrevohn, AK

3:10 AM AKDT on June 27, 2017 (GMT -0800)
Sparrevohn LRRS

Weather History for PASV - March, 2013

Change the Weather History Date:

Sunday, March 3, 2013

  Actual Average Record
Temperature  
Mean Temperature 33 °F -  
Max Temperature 37 °F 24 °F 39 °F (2008)
Min Temperature 29 °F 9 °F -14 °F (2012)
Degree Days  
Heating Degree Days 32    
Moisture  
Dew Point 15 °F    
Average Humidity 46    
Maximum Humidity 53    
Minimum Humidity 42    
Precipitation  
Precipitation 0.00 in - - ()
Sea Level Pressure  
Sea Level Pressure 30.13 in    
Wind  
Wind Speed 10 mph (NE)    
Max Wind Speed 15 mph    
Max Gust Speed 22 mph    
Visibility 10 miles    
Events      
Averages and records for this station are not official NWS values.
T = Trace of Precipitation, MM = Missing Value Source: NWS Daily Summary

Daily Weather History Graph

Daily Weather History Graph

Search for Another Location

Airport or City:

Trip Planner

Search our weather history database for the weather conditions in past years. The results will help you decide how hot, cold, wet, or windy it might be!

Date:

Astronomy

Mar. 03, 2013 Rise Set
Actual Time 8:15 AM AKST 6:54 PM AKST
Civil Twilight 7:32 AM AKST 7:37 PM AKST
Nautical Twilight 6:42 AM AKST 8:27 PM AKST
Astronomical Twilight 5:51 AM AKST 9:18 PM AKST
Moon 2:35 AM AKST (3/3) 9:45 AM AKST (3/3)
Length of Visible Light 12h 05m
Length of Day
10h 39m
Waning Gibbous, 62% of the Moon is Illuminated
Mar 3
Waning Gibbous
Mar 4
Last Quarter
Mar 11
New
Mar 19
First Quarter
Mar 27
Full

Hourly Weather History & Observations

Time (AKST) Temp. Windchill Dew Point Humidity Pressure Visibility Wind Dir Wind Speed Gust Speed Precip Events Conditions
12:55 AM 29.5 °F 20.4 °F 11.8 °F 48% 29.97 in 10.0 mi ENE 10.4 mph - N/A   Mostly Cloudy
1:55 AM 33.3 °F 23.2 °F 12.2 °F 42% 29.98 in 10.0 mi East 15.0 mph 21.9 mph N/A   Mostly Cloudy
3:55 AM 31.1 °F 21.9 °F 12.4 °F 46% 30.01 in 10.0 mi ENE 11.5 mph - N/A   Mostly Cloudy
4:55 AM 30.4 °F 20.5 °F 11.8 °F 46% 30.01 in 10.0 mi NE 12.7 mph - N/A   Mostly Cloudy
5:55 AM 30.7 °F 24.1 °F 12.2 °F 46% 30.03 in 10.0 mi NNE 6.9 mph - N/A   Overcast
6:55 AM 31.5 °F 23.5 °F 12.0 °F 45% 30.05 in 10.0 mi NNE 9.2 mph - N/A   Overcast
7:55 AM 33.3 °F 28.9 °F 12.9 °F 43% 30.07 in 10.0 mi NNE 4.6 mph - N/A   Overcast
8:55 AM 32.7 °F 26.4 °F 13.8 °F 46% 30.09 in 10.0 mi NE 6.9 mph - N/A   Overcast
9:55 AM 33.3 °F 25.7 °F 14.0 °F 45% 30.10 in 10.0 mi NNE 9.2 mph - N/A   Mostly Cloudy
10:55 AM 33.6 °F 26.2 °F 14.4 °F 45% 30.12 in 10.0 mi NE 9.2 mph - N/A   Mostly Cloudy
11:55 AM 34.5 °F 27.3 °F 14.9 °F 45% 30.13 in 10.0 mi NNE 9.2 mph - N/A   Mostly Cloudy
12:55 PM 34.9 °F 27.7 °F 16.2 °F 46% 30.14 in 10.0 mi NE 9.2 mph - N/A   Mostly Cloudy
1:55 PM 37.4 °F 30.8 °F 17.6 °F 45% 30.06 in 10.0 mi ENE 9.2 mph - N/A   Mostly Cloudy
2:55 PM 37.6 °F 29.6 °F 17.1 °F 43% 30.15 in 10.0 mi East 12.7 mph 18.4 mph N/A   Mostly Cloudy
3:55 PM 37.4 °F 30.8 °F 17.2 °F 44% 30.17 in 10.0 mi SE 9.2 mph - N/A   Mostly Cloudy
4:55 PM 37.6 °F 30.5 °F 16.7 °F 43% 30.19 in 10.0 mi East 10.4 mph - N/A   Partly Cloudy
5:55 PM 37.2 °F 31.9 °F 17.4 °F 45% 30.20 in 10.0 mi ENE 6.9 mph - N/A   Scattered Clouds
6:55 PM 34.3 °F 27.7 °F 18.5 °F 52% 30.23 in 10.0 mi NE 8.1 mph - N/A   Mostly Cloudy
7:55 PM 34.3 °F 28.4 °F 18.1 °F 52% 30.25 in 10.0 mi NNE 6.9 mph - N/A   Mostly Cloudy
8:55 PM 34.3 °F 27.7 °F 17.8 °F 51% 30.26 in 10.0 mi NE 8.1 mph - N/A   Mostly Cloudy
9:55 PM 33.6 °F 26.8 °F 18.1 °F 53% 30.27 in 10.0 mi NE 8.1 mph - N/A   Mostly Cloudy
10:55 PM 36.3 °F 30.8 °F 18.0 °F 47% 30.27 in 10.0 mi Variable 6.9 mph - N/A   Mostly Cloudy
11:55 PM 37.2 °F 29.1 °F 18.1 °F 46% 30.27 in 10.0 mi East 12.7 mph 19.6 mph N/A   Mostly Cloudy